EST,Max TemperatureF,Mean TemperatureF,Min TemperatureF,Max Dew PointF,MeanDew PointF,Min DewpointF,Max Humidity, Mean Humidity, Min Humidity, Max Sea Level PressureIn, Mean Sea Level PressureIn, Min Sea Level PressureIn, Max VisibilityMiles, Mean VisibilityMiles, Min VisibilityMiles, Max Wind SpeedMPH, Mean Wind SpeedMPH, Max Gust SpeedMPH,PrecipitationIn, CloudCover, Events, WindDirDegrees
2012-11-1,44,43,41,41,39,35,92,85,76,29.65,29.53,29.45,10,9,4,21,13,25,0.16,8,Rain,266
2012-11-2,41,37,35,36,32,30,93,79,70,29.94,29.78,29.64,10,9,4,16,12,22,0.14,8,Rain,305
2012-11-3,42,39,37,31,29,26,76,71,60,30.13,30.04,29.92,10,10,10,18,13,23,0.00,7,Rain,322
2012-11-4,36,34,33,29,26,24,82,70,65,30.16,30.14,30.11,10,10,7,14,8,,0.00,8,Snow,332
2012-11-5,35,34,33,27,23,19,73,65,54,30.25,30.18,30.10,10,10,8,12,6,,0.00,8,Snow,349
2012-11-6,39,34,30,26,22,17,79,61,47,30.23,30.17,30.09,10,10,10,12,4,,0.00,4,,112
2012-11-7,42,34,26,29,23,20,81,68,45,30.15,30.11,30.04,10,10,10,15,8,,0.00,3,,61
2012-11-8,39,30,21,26,21,17,89,68,41,30.21,30.16,30.13,10,10,9,9,3,,0.00,1,,331
2012-11-9,48,39,30,39,34,25,89,76,61,30.22,30.18,30.13,10,8,5,16,5,,0.01,8,Rain,251
2012-11-10,53,46,39,43,40,37,93,80,63,30.29,30.23,30.15,8,5,2,10,5,,0.00,8,,101
2012-11-11,66,57,48,43,38,34,80,47,31,30.24,30.19,30.11,10,10,9,21,8,28,0.00,5,,199
2012-11-12,69,54,39,53,43,32,88,65,38,30.20,30.04,29.87,10,8,3,25,16,34,0.37,6,Rain,222
2012-11-13,37,36,34,29,23,20,73,61,48,30.58,30.41,30.22,10,10,10,18,13,24,0.00,7,Snow,280
2012-11-14,41,36,30,29,26,22,85,67,49,30.64,30.58,30.51,10,10,10,8,2,,0.00,7,,63
2012-11-15,46,36,26,27,26,23,86,69,44,30.50,30.41,30.32,10,10,10,9,2,,0.00,2,,58
2012-11-16,46,36,26,35,29,23,89,78,52,30.53,30.46,30.38,10,10,5,5,0,,0.00,2,,11
2012-11-17,48,37,26,40,31,24,100,88,71,30.66,30.60,30.50,6,3,0,7,1,,0.00,3,Fog,72
2012-11-18,52,40,28,34,30,26,96,83,47,30.65,30.59,30.47,10,5,0,8,3,,0.00,3,Fog,78
2012-11-19,51,40,28,37,31,24,89,79,52,30.49,30.40,30.26,10,8,5,6,1,,0.00,4,,72
2012-11-20,51,42,30,39,33,28,93,82,52,30.24,30.19,30.13,10,6,0,6,1,,0.00,4,Fog,49
2012-11-21,52,38,24,40,28,23,100,89,52,30.28,30.20,30.15,10,3,0,5,0,,0.00,3,Fog,342
2012-11-22,57,42,28,40,32,26,96,76,49,30.22,30.14,29.94,10,6,0,17,3,,0.00,2,Fog,201
2012-11-23,52,43,33,46,37,24,90,71,50,29.91,29.72,29.65,10,8,2,33,18,43,0.02,6,Rain-Snow,228
2012-11-24,37,34,30,26,22,17,82,66,50,29.99,29.87,29.75,10,10,8,24,18,32,0.00,6,Snow,290
2012-11-25,34,30,28,28,24,17,87,77,57,29.97,29.87,29.79,10,5,1,17,13,24,0.01,8,Snow,258
2012-11-26,37,32,27,25,22,18,73,65,55,30.27,30.13,29.93,10,10,10,20,15,24,0.00,6,,263
2012-11-27,37,30,24,25,19,15,80,66,41,30.33,30.29,30.23,10,9,7,8,6,,0.00,4,Snow,271
2012-11-28,37,32,26,25,22,19,81,65,54,30.29,30.23,30.16,10,10,7,21,8,28,0.00,6,Snow,257
2012-11-29,45,36,27,31,25,19,79,62,40,30.31,30.26,30.22,10,10,10,22,13,33,0.00,5,,254
2012-11-30,36,32,28,30,24,19,88,80,69,30.42,30.35,30.28,10,8,1,20,14,26,0.03,8,Snow,76